DECAYED

STARLINK-1666, 46357 (Decayed)

Orbit data source: Space-Track

STARLINK-1666, 46357 was a payload satellite owned by SpaceX/Seattle (US) in LEO that was launched on Thu, 03 Sep 2020 UTC via an FALCON 9 launch vehicle from the Air Force Eastern Test Range (AFETR). Payload-class satellites include a variety of spacecraft equipped with specific instruments for various scientific and technological missions. These include communications satellites like Starlink; space stations such as the ISS; scientific satellites like the Hubble; Earth observation satellites from companies like Planet Labs, Umbra, and HawkEye 360; GPS; miniature CubeSats for education and research; and military/defense satellites.

Not visible in the next 10 days
Identifier
46357, 2020-062AJ
Orbit
Decayed
Country
Flag of USUS
Related business
Manufacturer
SpaceX/Seattle
Mission
Decayed Commercial Communications
Bus & Motor
STARLINK, Unknown motor
Mass
260 kg wet, ~248 kg dry
Launch date (UTC)
2020-09-03 (6 years ago)
Launch vehicle
FALCON 9
Launch site
Air Force Eastern Test Range (AFETR)
Object type
Payload
Rocket body
Debris
Shape & HBR
Box + 1 Pan, 10.1 m
Radar Cross Section
13.562 m², Large (>1 m²)

Expand to show TLE details & history
Last TLE update: 2 months ago

TLE from 2 months ago
0 STARLINK-1666
1 46357U 20062AJ  26210.57526479  .11150427  12570-4  32768-3 0  9990
2 46357  53.0143 343.7176 0009126 301.9168  58.0992 16.44535851327311
Epoch: 2026-07-29T13:48Z
TLE epoch observation values (Epoch: 2026-07-29T13:48:22.877Z)
Latitude
-0.00003°
Longitude
-170.60591°
Altitude
151.545 km
Speed
7.818 km/s
True Right ascension
22h 54m 52s
True Declination
0° 00' 00"
Sunlit
Object was in full shadow at epoch
Visualization orbit readout
Latitude
Unknown
Longitude
Unknown
Altitude
Unknown
Speed
Unknown
Apparent Right ascension
Unknown
Apparent Declination
Unknown
Sunlit
N/A
Visualization observer readout
Local Sidereal Time
02:03:37
Azimuth
Unknown
Elevation
Unknown
Doppler factor
Unknown
Orbital elements
Apogee altitude
160.019 km
Perigee altitude
148.096 km
Semi-major axis
6,532.195 km
Eccentricity
0.00091
Inclination
53.0143°
RAAN
343.7176°
Arg. of periapsis
301.9168°
True anomaly
58.18804°
Mean anomaly
58.0992°
Eccentric anomaly
58.14361°
Mean motion
4.11107 °/min
Orbital period
87.57 mins
BSTAR
0.00032768
Loading maneuver chart data...
Computing Atmospheric mass density...

Documentation

Showing up to 5 results
|